Wind_Speed
14 10 5 3 4 8 10 13 16 17 18 16 15 14 14 12 11 10 10 9 8 7 7 6 5 4 3 2 2 2 2 2 2 3 3 4 4 5 5 4 3 2 2
13 8 4 1 3 6 11 14 15 17 17 15 15 15 15 13 12 11 11 10 10 9 7 6 5 4 3 2 2 2 2 2 2 3 3 4 4 5 5 4 3 3 2
12 9 5 1 2 7 11 13 15 16 17 15 15 15 14 13 12 12 12 11 10 9 8 6 5 4 3 3 2 2 2 3 3 3 3 4 4 5 5 5 4 3 3
11 9 5 2 2 6 9 13 15 16 17 16 16 15 15 14 14 14 13 12 11 9 8 7 6 5 4 2 2 2 2 2 2 3 3 4 4 5 5 5 5 4 4
9 7 5 2 3 6 9 12 14 15 16 17 16 16 16 16 15 14 13 12 11 10 9 8 7 5 4 3 2 1 1 1 2 3 3 4 5 5 5 5 5 5 5
7 6 5 3 3 6 9 11 13 14 15 16 16 16 16 16 15 15 13 12 11 11 10 9 8 6 5 4 3 2 2 2 2 3 4 4 5 6 6 6 6 6 6
6 5 4 2 3 5 8 10 12 13 14 16 16 16 16 16 16 15 14 13 12 12 11 10 9 8 7 6 5 5 5 4 5 5 5 6 6 7 7 7 7 7 7
5 5 4 2 3 5 7 9 11 12 14 14 15 16 17 16 16 15 15 14 13 13 12 11 11 10 9 8 8 8 7 7 7 8 8 8 8 9 9 9 10 10 9
4 4 3 2 2 4 6 7 9 11 12 13 14 16 16 16 16 15 15 15 15 14 14 13 13 12 11 11 11 11 10 10 10 10 10 11 11 11 11 11 11 12 12
2 2 2 1 1 3 4 6 8 9 11 13 13 14 16 15 16 16 16 16 15 15 15 15 14 14 14 14 14 14 14 13 13 13 13 14 14 14 13 13 13 14 14
0 1 0 0 1 2 4 5 6 7 9 12 12 14 16 15 16 17 17 17 17 17 17 17 17 17 16 16 17 17 17 17 17 16 16 16 16 16 16 16 16 16 16
2 2 2 2 2 3 4 5 7 8 9 11 12 14 16 16 17 17 17 18 18 19 19 19 20 20 19 19 20 20 20 20 20 19 19 19 19 19 19 18 18 18 18
4 4 4 4 5 5 5 6 8 9 10 12 13 14 16 17 19 19 19 19 20 21 21 22 22 23 23 23 23 23 23 23 22 22 22 21 21 21 21 21 21 21 21
5 5 5 6 6 7 7 8 9 10 11 12 13 15 16 18 19 20 21 21 22 22 23 23 24 25 25 26 26 26 25 25 25 24 24 24 24 24 24 24 24 24 24
8 8 8 8 8 9 9 9 10 11 12 13 14 16 17 19 20 21 22 23 23 23 24 25 26 27 28 29 28 28 28 27 27 27 27 27 27 27 26 26 26 27 27
10 10 10 10 10 11 11 12 12 13 14 15 16 17 18 20 21 22 22 23 25 25 26 27 28 29 29 29 30 30 29 29 29 29 30 29 29 29 29 29 29 29 29
11 11 12 12 13 13 13 14 15 16 16 17 17 19 20 21 23 23 24 25 26 27 28 29 30 30 31 31 31 31 30 30 30 30 31 31 31 32 32 32 32 32 32
13 14 14 14 15 16 16 17 17 18 18 19 20 21 22 22 23 24 25 27 28 29 29 30 30 31 31 32 32 33 33 33 32 33 33 34 34 35 36 36 35 35 35
15 15 16 16 17 18 18 19 20 21 21 20 22 22 23 24 25 25 25 27 28 29 30 31 31 32 33 33 32 32 33 34 34 34 35 36 37 38 39 38 38 37 38
16 17 17 18 18 19 19 21 22 23 23 23 24 25 25 27 27 27 28 28 30 31 32 32 32 32 33 34 33 34 35 36 37 37 38 39 39 40 40 40 40 40 41
17 17 19 20 21 21 21 22 23 24 25 27 28 29 29 29 30 30 30 31 32 32 32 32 32 33 34 34 34 35 36 36 38 39 40 41 41 42 43 43 43 44 44
17 18 19 21 21 22 23 24 25 25 27 28 29 30 31 33 33 32 32 32 33 34 33 33 34 34 35 35 36 37 37 38 39 41 42 43 43 45 46 47 47 47 48
19 20 20 21 22 23 24 24 25 27 27 28 29 31 32 33 32 33 34 34 35 34 34 35 35 35 36 37 38 39 39 40 41 42 43 44 45 45 46 48 49 50 51
20 21 21 22 23 24 25 26 27 28 29 30 31 32 33 33 34 34 34 35 35 36 36 36 37 37 38 39 40 40 41 41 42 43 43 44 45 46 47 48 50 52 53
21 21 22 23 23 24 25 27 28 29 30 31 32 33 33 33 34 35 35 36 36 37 37 37 37 37 39 40 41 41 42 43 43 43 45 46 48 49 50 51 53 54 55
22 22 23 24 25 26 27 28 29 29 30 30 31 32 33 33 34 34 36 36 37 38 39 41 41 41 41 42 42 42 42 43 45 46 48 49 50 51 52 53 54 55 56
Wind_Direction
338 336 319 274 232 213 208 203 202 197 193 194 197 198 199 201 201 198 194 188 182 178 174 171 170 167 158 146 124 92 63 29 8 5 5 4 8 8 2 354 347 329 310
345 344 344 269 214 213 199 193 194 194 190 192 195 197 198 198 196 192 186 183 181 178 175 171 169 165 157 140 117 99 76 56 44 33 22 18 15 11 9 9 7 352 331
353 355 357 7 187 193 188 192 193 189 187 190 193 195 192 188 190 186 183 182 182 181 179 177 177 173 163 141 120 105 81 71 68 53 36 26 20 15 8 2 360 354 339
357 359 7 48 145 173 187 190 190 189 190 191 189 190 189 188 187 185 184 185 187 187 188 189 187 182 175 162 141 114 91 78 65 49 30 19 14 10 5 0 356 349 340
6 8 28 78 143 162 175 183 185 188 193 194 190 189 191 189 187 188 189 190 193 195 197 198 196 192 189 187 181 163 109 53 33 22 16 11 8 3 357 353 348 343 337
21 25 39 77 138 158 173 182 185 191 194 194 194 191 192 192 192 193 196 197 199 203 205 207 206 206 207 211 221 240 266 299 322 337 346 349 348 350 347 344 342 336 330
30 26 25 71 135 152 163 176 183 189 192 192 192 192 195 196 197 200 203 205 208 210 211 214 215 219 226 232 241 257 270 282 294 307 315 318 319 323 327 327 327 326 322
37 31 37 74 136 146 156 168 178 184 188 192 195 198 200 200 202 205 209 211 214 216 219 222 224 230 237 242 248 258 268 278 287 295 302 304 304 307 312 314 315 316 314
45 42 39 52 114 143 157 170 179 187 193 195 198 200 202 204 207 211 214 217 220 223 226 228 232 239 245 250 254 259 266 274 282 289 292 294 295 296 299 303 305 307 306
43 42 48 57 126 168 175 181 187 195 201 201 203 205 206 210 215 217 219 223 227 230 234 237 241 246 250 254 257 261 265 271 277 281 285 288 289 290 292 295 298 298 297
304 333 296 148 208 206 199 194 199 203 203 204 211 214 216 219 221 222 225 231 234 236 239 243 247 251 254 258 261 263 266 270 274 277 280 282 285 286 287 291 292 293 292
263 269 265 251 246 236 231 228 222 218 216 219 223 224 225 228 231 231 234 238 240 242 246 250 253 255 258 261 264 265 267 269 271 274 276 278 281 284 284 287 288 289 289
273 255 259 262 256 245 239 238 235 233 231 233 235 236 236 236 238 240 240 244 247 249 252 254 255 257 260 262 264 265 267 268 270 272 274 277 279 281 283 284 285 286 286
268 253 258 263 261 253 246 244 245 244 243 243 243 243 244 244 245 245 247 249 251 253 255 256 258 259 261 263 264 263 265 268 269 271 273 275 277 279 280 282 283 284 284
270 262 266 266 267 261 257 252 252 251 251 251 249 250 251 251 250 250 251 252 253 255 257 258 260 262 263 265 266 265 264 266 268 269 271 273 276 277 278 279 281 282 282
275 268 266 267 270 265 262 261 259 257 256 257 257 257 257 257 255 254 255 256 257 258 260 261 262 264 265 268 267 266 265 266 267 269 270 272 274 276 277 278 280 280 280
273 267 263 260 262 264 264 264 265 265 264 263 263 262 260 260 258 257 258 260 260 261 261 263 264 265 265 265 265 265 265 266 268 269 270 272 273 275 277 279 279 280 279
269 266 264 268 266 267 267 266 267 264 267 268 267 266 263 265 264 262 263 265 264 263 264 263 263 265 267 268 267 265 264 265 267 268 269 272 273 275 276 277 277 278 278
269 268 269 270 271 271 272 272 271 268 269 272 271 270 269 270 270 269 270 268 267 267 267 266 267 267 267 266 267 267 268 268 267 268 270 272 273 274 275 276 277 276 277
269 272 275 277 276 275 275 274 274 275 274 273 272 271 273 272 271 271 271 271 270 270 269 269 269 270 267 266 269 269 271 271 270 269 270 272 273 274 275 275 275 275 276
270 273 274 275 276 276 276 274 274 275 276 277 275 274 273 273 272 272 271 271 270 271 271 271 270 271 271 272 272 272 271 272 273 273 271 272 273 274 273 274 274 274 275
272 274 274 273 275 275 275 276 276 276 277 278 277 277 278 278 275 274 273 272 272 272 272 272 273 273 274 275 274 273 272 274 274 273 271 272 273 275 276 276 275 276 277
272 274 274 274 274 276 276 278 279 278 277 278 279 278 281 283 279 278 277 277 276 275 274 273 274 275 275 275 274 273 273 273 274 274 274 274 275 275 276 277 277 277 278
270 272 273 274 275 277 279 281 281 281 281 281 281 281 280 281 281 281 281 282 278 276 276 276 275 277 277 276 276 277 277 277 277 276 275 276 277 278 278 278 278 279 279
270 272 273 275 277 278 280 282 282 282 282 282 281 280 281 281 282 280 280 281 279 276 276 276 277 278 280 280 279 278 277 278 278 278 277 278 278 279 280 280 280 281 281
270 273 274 276 279 281 283 284 283 283 282 282 282 281 280 280 281 281 281 280 280 280 279 279 280 280 280 280 280 279 279 279 279 279 280 280 280 280 280 281 281 281 281
Height
5842 5838 5836 5835 5835 5837 5838 5840 5844 5848 5852 5856 5860 5863 5866 5868 5870 5872 5873 5875 5876 5878 5879 5879 5879 5880 5880 5880 5879 5879 5878 5878 5877 5877 5876 5876 5875 5874 5873 5873 5872 5872 5871
5840 5837 5836 5835 5835 5836 5838 5839 5842 5846 5851 5855 5858 5861 5864 5866 5868 5870 5872 5873 5875 5877 5878 5878 5879 5879 5879 5879 5879 5879 5878 5878 5877 5877 5876 5875 5875 5874 5873 5872 5872 5871 5870
5839 5837 5836 5835 5834 5835 5837 5839 5842 5846 5849 5853 5857 5859 5861 5864 5867 5869 5871 5873 5874 5876 5877 5877 5878 5879 5879 5879 5878 5878 5878 5878 5877 5877 5876 5875 5875 5874 5873 5872 5871 5871 5870
5839 5837 5835 5835 5835 5835 5836 5838 5841 5845 5848 5852 5855 5858 5860 5863 5866 5868 5870 5872 5873 5875 5876 5877 5877 5878 5878 5878 5878 5878 5877 5877 5877 5876 5876 5875 5874 5874 5873 5872 5871 5870 5869
5838 5836 5835 5835 5835 5835 5836 5837 5840 5844 5848 5851 5854 5857 5859 5862 5865 5867 5869 5871 5872 5874 5875 5876 5876 5877 5877 5877 5877 5877 5877 5877 5876 5876 5875 5874 5873 5873 5872 5871 5870 5869 5868
5839 5837 5837 5836 5836 5836 5837 5838 5841 5844 5847 5850 5853 5855 5858 5861 5864 5866 5868 5870 5871 5872 5873 5874 5875 5875 5876 5876 5876 5876 5876 5875 5875 5875 5874 5873 5872 5871 5870 5869 5868 5867 5866
5839 5838 5838 5837 5836 5837 5837 5839 5841 5844 5846 5849 5852 5854 5857 5860 5862 5864 5866 5868 5869 5870 5871 5872 5873 5874 5874 5874 5875 5875 5874 5874 5873 5873 5872 5871 5871 5870 5869 5868 5866 5865 5864
5839 5838 5838 5837 5837 5837 5838 5840 5841 5843 5846 5848 5851 5853 5856 5858 5860 5862 5864 5866 5867 5868 5869 5870 5871 5871 5872 5872 5872 5872 5872 5872 5871 5870 5870 5869 5868 5867 5866 5865 5864 5863 5862
5839 5839 5838 5838 5838 5838 5839 5840 5842 5843 5845 5847 5849 5852 5854 5856 5858 5860 5861 5863 5864 5865 5866 5867 5868 5869 5869 5869 5869 5869 5869 5868 5868 5867 5866 5866 5865 5864 5863 5862 5861 5860 5859
5839 5839 5838 5838 5838 5839 5839 5840 5842 5843 5844 5846 5848 5850 5852 5854 5856 5857 5858 5860 5861 5862 5863 5864 5864 5865 5865 5865 5865 5865 5865 5864 5864 5863 5862 5861 5860 5860 5859 5858 5857 5856 5855
5837 5838 5838 5838 5838 5838 5839 5840 5841 5842 5842 5844 5846 5847 5849 5850 5852 5853 5855 5856 5857 5858 5859 5860 5860 5861 5861 5861 5861 5860 5860 5860 5859 5858 5857 5856 5855 5854 5853 5853 5852 5851 5850
5837 5837 5837 5837 5837 5837 5838 5839 5839 5840 5841 5842 5844 5844 5846 5847 5849 5849 5851 5852 5853 5854 5854 5855 5855 5856 5856 5856 5855 5855 5855 5854 5854 5853 5852 5851 5850 5849 5848 5847 5846 5845 5844
5835 5835 5835 5836 5836 5836 5836 5837 5837 5838 5839 5840 5841 5842 5842 5844 5845 5845 5847 5848 5848 5849 5849 5849 5850 5850 5850 5850 5849 5849 5848 5848 5847 5847 5846 5845 5844 5843 5842 5841 5839 5839 5838
5832 5832 5833 5833 5834 5834 5834 5834 5835 5835 5836 5836 5837 5838 5839 5839 5840 5841 5842 5842 5843 5843 5843 5843 5844 5844 5843 5843 5843 5842 5841 5841 5841 5840 5839 5838 5837 5836 5835 5834 5833 5832 5831
5829 5829 5829 5830 5831 5831 5831 5831 5831 5831 5832 5832 5833 5833 5833 5834 5835 5835 5836 5836 5836 5836 5836 5837 5837 5836 5836 5835 5835 5834 5834 5834 5833 5832 5831 5830 5829 5828 5827 5826 5825 5824 5823
5824 5825 5825 5826 5827 5827 5827 5827 5827 5827 5828 5828 5828 5828 5828 5828 5829 5829 5829 5829 5829 5829 5829 5829 5829 5828 5828 5827 5826 5826 5826 5825 5825 5824 5823 5822 5821 5820 5819 5818 5817 5816 5814
5820 5821 5821 5821 5822 5822 5822 5822 5822 5822 5822 5823 5822 5822 5822 5822 5822 5822 5822 5821 5821 5821 5821 5821 5820 5820 5819 5818 5817 5817 5816 5816 5816 5815 5814 5813 5812 5811 5810 5809 5808 5806 5805
5815 5816 5816 5816 5816 5816 5816 5816 5816 5816 5816 5816 5816 5816 5815 5815 5815 5814 5814 5814 5812 5812 5812 5811 5811 5810 5810 5809 5808 5807 5806 5806 5806 5805 5805 5804 5803 5801 5800 5799 5798 5796 5795
5810 5811 5811 5811 5811 5810 5810 5810 5810 5810 5810 5810 5810 5809 5808 5808 5807 5807 5806 5805 5804 5803 5803 5802 5801 5800 5800 5799 5798 5798 5797 5796 5796 5795 5794 5793 5792 5791 5789 5787 5786 5785 5783
5803 5804 5804 5804 5804 5804 5804 5804 5803 5803 5803 5803 5803 5802 5802 5801 5800 5799 5797 5796 5795 5795 5794 5792 5791 5790 5789 5789 5788 5787 5786 5785 5785 5784 5783 5781 5780 5779 5777 5775 5774 5773 5771
5797 5797 5798 5798 5798 5798 5798 5797 5797 5796 5796 5795 5794 5793 5793 5792 5791 5789 5788 5787 5786 5785 5784 5783 5782 5781 5780 5779 5778 5777 5776 5775 5774 5772 5771 5769 5767 5766 5764 5762 5761 5759 5757
5791 5791 5791 5791 5791 5791 5791 5790 5789 5788 5787 5786 5785 5783 5783 5782 5780 5778 5778 5776 5776 5775 5774 5773 5772 5770 5769 5768 5767 5766 5765 5763 5761 5760 5758 5756 5754 5753 5751 5749 5746 5744 5742
5784 5785 5785 5784 5784 5783 5783 5782 5781 5780 5779 5778 5776 5775 5774 5772 5770 5769 5768 5766 5766 5765 5763 5762 5761 5759 5758 5756 5755 5754 5752 5751 5749 5747 5745 5743 5741 5739 5737 5734 5731 5729 5727
5778 5778 5778 5777 5777 5776 5775 5774 5773 5772 5770 5769 5768 5766 5765 5763 5762 5760 5758 5757 5755 5753 5752 5751 5749 5747 5746 5744 5742 5741 5739 5737 5736 5734 5731 5729 5726 5724 5721 5719 5716 5713 5710
5771 5771 5770 5770 5769 5768 5767 5766 5764 5763 5761 5760 5758 5757 5755 5754 5752 5750 5749 5747 5745 5743 5741 5739 5738 5736 5734 5732 5729 5728 5726 5724 5722 5719 5717 5714 5712 5709 5705 5702 5699 5695 5692
5764 5763 5763 5762 5761 5760 5758 5757 5755 5754 5752 5750 5748 5747 5745 5744 5742 5740 5738 5736 5734 5732 5730 5728 5726 5723 5721 5719 5717 5714 5712 5709 5707 5704 5702 5699 5696 5692 5689 5685 5682 5678 5674